Regional Weather Roundup
Issued by NWS Huntsville, AL

Home | Current Version | Previous Version | Text Only | Print | Product List | Glossary On
Versions: 1 2 3 4 5 6 7 8 9 10 11 12 13 14 15 16 17 18 19 20 21 22 23 24 25 26 27 28 29 30 31 32 33 34 35 36 37 38 39 40 41 42 43 44 45 46 47 48 49 50
000
ASUS44 KHUN 231610
RWRHUN

WEATHER ROUNDUP FOR THE TENNESSEE VALLEY
NATIONAL WEATHER SERVICE HUNTSVILLE AL
1000 AM CST SUN NOV 23 2014

ALZ001>004-231700-
NORTHWEST ALABAMA

CITY           SKY/WX    TMP DP  RH WIND       PRES   REMARKS
COURTLAND HCN    N/A     55 N/A N/A SE13        N/A
RUSSELLVILLE     N/A     55 N/A N/A MISG        N/A
SHOALS AIRPORT CLOUDY    56  52  86 SE10G20   29.78F
SHOALS TVA RES   N/A     55 N/A N/A MISG        N/A
$$

ALZ005>007-016-231700-
NORTH CENTRAL ALABAMA

CITY           SKY/WX    TMP DP  RH WIND       PRES   REMARKS
CULLMAN AG STN   N/A     54 N/A N/A SE9         N/A
DECATUR AP     CLOUDY    56  54  93 SE13G22   29.81F
HUNTSVILLE AP  LGT RAIN  56  51  84 SE24G31   29.81F
HUN NWS/UAH      N/A     55  51  86 SE13        N/A
MERIDIANVILLE  CLOUDY    54  50  87 SE12G20   29.83F
REDSTONE ARSN  LGT RAIN  55  52  92 SE20G30   29.81F
VINEMONT AP    LGT RAIN  53  52  96 E10G24    29.83F
$$

ALZ008>010-231700-
NORTHEAST ALABAMA

CITY           SKY/WX    TMP DP  RH WIND       PRES   REMARKS
ALBERTVILLE    CLOUDY    52  52 100 E10G20    29.84F
FORT PAYNE     LGT RAIN  52  46  82 SE13G22   29.89F
SCOTTSBORO AP  CLOUDY    55  52  88 S7        29.89F
SCOTTSBORO HCN   N/A     55 N/A N/A MISG        N/A
VALLEY HEAD      N/A     52 N/A N/A MISG        N/A
$$

TNZ076-096-097-231700-
SOUTHEASTERN MIDDLE TENNESSEE

CITY           SKY/WX    TMP DP  RH WIND       PRES   REMARKS
TULLAHOMA      CLOUDY    54  52  94 SE12      29.85F
WINCHESTER     CLOUDY    55  54  94 SE15      29.85F
$$

...SURROUNDING SITES...

CITY           SKY/WX    TMP DP  RH WIND       PRES   REMARKS
ATLANTA        LGT RAIN  52  50  93 E16       29.98F FOG
ANNISTON       CLOUDY    57  55  93 NE7       29.87F FOG
BIRMINGHAM     LGT RAIN  59  57  93 E14G25    29.82F
CHATTANOOGA    RAIN      50  48  93 N3        29.95F VSB 1
CORINTH        DRIZZLE   59  57  94 SE9       29.70F
DALTON         RAIN      54  54 100 S5        29.94F
GADSDEN        CLOUDY    52  48  87 NE10      29.87F
GOLDEN TRNGL   LGT RAIN  61  57  88 SE14G21   29.69F VSB 1
HALEYVILLE     CLOUDY    55  55 100 SE12G18   29.78F FOG
JACKSON TN     CLOUDY    58  55  90 SE8       29.69F
LEWISBURG      CLOUDY    56  54  93 SE10      29.82F
MEMPHIS        LGT RAIN  59  56  89 SE8       29.63F FOG
MURFREESBORO   CLOUDY    60  53  77 SE20      29.83F
NASHVILLE      LGT RAIN  59  53  80 SE10      29.82F
OXFORD MS      CLOUDY    55  55 100 SE9       29.66F FOG
ROME           CLOUDY    52  51  97 SE8       29.94F
SAVANNAH       CLOUDY    55  55 100 SE14      29.72F
TUPELO         LGT RAIN  59  57  93 SE6       29.69F FOG
TUSCALOOSA     CLOUDY    63  60  90 VRB6      29.76F
$$

...GULF COAST WEATHER...

CITY           SKY/WX    TMP DP  RH WIND       PRES   REMARKS
GULFPORT       LGT RAIN  64  62  93 SW9G24    29.75R
PASCAGOULA     CLOUDY    65  62  90 SW8G18    29.74R
MOBILE         CLOUDY    68  67  96 SW14      29.74R THUNDER
GULF SHORES    CLOUDY    72  69  89 S14G22    29.74F
PENSACOLA      CLOUDY    73  72  96 S15G23    29.74F FOG
DESTIN         CLOUDY    73  70  90 SE15G22   29.80F FOG
PANAMA CITY    CLOUDY    74  71  89 SE20G31   29.85F
APPALACHICOLA  CLOUDY    72  68  87 SE12      29.90F FOG
$$




USA.gov is the U.S. government's official web portal to all federal, state and local government web resources and services.